Location: Unspecified
(0.0000°N, 0.0000°E)
Time: 16:42:44
(UTC+00:00)

A-11 Canister half - All Passes

Search period start: 04 March 2015 00:00
Search period end: 14 March 2015 00:00
Orbit: 1515 x 1685 km, 47.2° (Epoch: 01 March)

Date Brightness Start Highest point End Pass type
(mag) Time Alt. Az. Time Alt. Az. Time Alt. Az.
04 Mar - 01:02:39 10° S 01:10:12 25° SE 01:18:13 10° E visible
04 Mar - 03:05:21 10° SW 03:15:30 73° NW 03:25:34 10° NNE visible
04 Mar - 05:16:26 10° WNW 05:21:20 14° NW 05:25:22 10° NNW visible
04 Mar - 13:52:44 10° NNW 14:01:35 51° NE 14:10:29 10° ESE daylight
04 Mar - 15:58:21 10° WNW 16:06:26 33° SW 16:14:22 10° SSE daylight
05 Mar - 00:40:05 10° S 00:47:12 23° SE 00:54:51 10° E night (unlit)
05 Mar - 02:42:24 10° SW 02:52:34 79° NW 03:02:42 10° NE visible
05 Mar - 04:52:37 10° WNW 04:58:18 15° NW 05:03:12 10° NNW visible
05 Mar - 13:29:58 10° NNW 13:38:41 46° NE 13:47:28 10° ESE daylight
05 Mar - 15:35:13 10° WNW 15:43:31 36° SW 15:51:42 10° SSE daylight
06 Mar - 00:17:33 10° S 00:24:12 21° SE 00:31:26 10° E night (unlit)
06 Mar - 02:19:28 10° SW 02:29:39 85° NW 02:39:49 10° NE visible
06 Mar - 04:28:57 10° W 04:35:16 17° NW 04:40:53 10° N visible
06 Mar - 13:07:15 10° NNW 13:15:48 42° NE 13:24:25 10° ESE daylight
06 Mar - 15:12:08 10° WNW 15:20:37 39° SW 15:29:00 10° SSE daylight
06 Mar - 23:55:06 10° S 00:01:11 19° SE 00:07:57 10° E night (unlit)
07 Mar - 01:56:33 10° SW 02:06:44 89° ESE 02:16:55 10° NE visible
07 Mar - 04:05:24 10° W 04:12:15 19° NW 04:18:28 10° N visible
07 Mar - 12:44:32 10° NNW 12:52:54 39° NE 13:01:21 10° ESE daylight
07 Mar - 14:49:03 10° WNW 14:57:43 43° SW 15:06:17 10° SSE daylight
07 Mar - 23:32:43 10° S 23:38:10 17° SE 23:44:22 10° E night (unlit)
08 Mar - 01:33:40 10° SW 01:43:48 83° SE 01:53:59 10° NE visible
08 Mar - 03:41:55 10° W 03:49:14 21° NW 03:55:59 10° N visible
08 Mar - 12:21:49 10° NNW 12:30:00 35° NE 12:38:16 10° ESE daylight
08 Mar - 14:26:01 10° WNW 14:34:49 47° SW 14:43:33 10° SSE daylight
08 Mar - 23:10:25 10° SSE 23:15:08 15° SE 23:20:41 10° ESE night (unlit)
09 Mar - 01:10:47 10° SW 01:20:52 78° SE 01:31:03 10° NE night (unlit)
09 Mar - 03:18:31 10° W 03:26:14 23° NW 03:33:27 10° N visible
09 Mar - 11:59:09 10° NNW 12:07:05 32° NE 12:15:09 10° ESE daylight
09 Mar - 14:03:00 10° NW 14:11:56 51° SW 14:20:48 10° SSE daylight
09 Mar - 22:48:17 10° SSE 22:52:06 13° SE 22:56:48 10° ESE night (unlit)
10 Mar - 00:47:56 10° SSW 00:57:56 72° SE 01:08:05 10° NE night (unlit)
10 Mar - 02:55:11 10° W 03:03:14 25° NW 03:10:52 10° N visible
10 Mar - 11:36:29 10° N 11:44:09 29° NE 11:51:59 10° ESE daylight
10 Mar - 13:40:00 10° NW 13:49:04 56° SW 13:58:02 10° SSE daylight
10 Mar - 22:26:26 10° SSE 22:29:03 12° SE 22:32:37 10° ESE night (unlit)
11 Mar - 00:25:05 10° SSW 00:35:01 66° SE 00:45:06 10° NE night (unlit)
11 Mar - 02:31:54 10° WSW 02:40:15 28° NW 02:48:16 10° N visible
11 Mar - 11:13:51 10° N 11:21:13 27° NE 11:28:48 10° ESE daylight
11 Mar - 13:17:01 10° NW 13:26:11 61° SW 13:35:15 10° SSE daylight
11 Mar - 22:05:45 10° SE 22:06:00 10° SE 22:07:15 10° SE night (unlit)
12 Mar - 00:02:16 10° SSW 00:12:06 61° SE 00:22:06 10° NE night (unlit)
12 Mar - 02:08:38 10° WSW 02:17:17 30° NW 02:25:36 10° N visible
12 Mar - 10:51:15 10° N 10:58:16 24° NE 11:05:34 10° E daylight
12 Mar - 12:54:03 10° NW 13:03:18 67° SW 13:12:27 10° SSE daylight
12 Mar - 15:06:50 10° SW 15:09:02 11° SW 15:10:22 10° SSW daylight
12 Mar - 23:39:28 10° SSW 23:49:09 56° SE 23:59:04 10° NE night (unlit)
13 Mar - 01:45:26 10° WSW 01:54:18 33° NW 02:02:55 10° NNE night (unlit)
13 Mar - 10:28:41 10° N 10:35:20 22° NE 10:42:18 10° E daylight
13 Mar - 12:31:07 10° NW 12:40:26 73° SW 12:49:38 10° SSE daylight
13 Mar - 14:42:21 10° WSW 14:46:01 12° SW 14:48:53 10° SSW daylight
13 Mar - 23:16:42 10° SSW 23:26:14 52° SE 23:36:01 10° ENE night (unlit)
